2022-098C (53446 NORAD) Tracking and Keplerian Element Data

This shows tracking and keplerian element data for the satellite.

Feedback or suggestion? Click here.




ElementValue
Catalog53446
Name2022-098C
Epoch Orbit722
Epoch Day270.20680797
Epoch Year2022
RAAN5.686
Inclination97.5361
Eccentricity0.0013585
Argument of Perigee94.088
Mean Anonmoly353.1493
Mean Motion15.09089053
Decay Rate4.549E-05
L11 53446U 22098C 22270.20680797 .00004549 00000+0 29044-3 0 9998
L22 53446 97.5361 5.6860 0013585 94.0880 353.1493 15.09089053 7220

Live tracking and technical data element details for 2022-098C (NORAD 53446). 2022-098C can be tracked NOW for your location showing map with azimuth and elevation plus other details from your city location.

Track the satellite on the map from your city or location and see movement details for azimuth, elevation, latitude, longitude, range, height, and movement on the map or in text.







IsCatalogInMostPopularTable: catalog: 53446, numindb: 3
Update: records affected: 1



GetName: 53446 2022-098C

Hit Count: updated at: Thu, 29 Sep 2022 11:02:03 GMT